Location: Cuzcurrita-R�o Tir�n
(42.5415°N, 2.9642°W)
Time: 17:26:08
(UTC+00:00)

H-2A R/B - Pass Details

Date: 27 February 2020
Orbit: 733 x 837 km, 98.2° (Epoch: 28 March)

Event Time Altitude Azimuth Distance (km) Brightness Sun altitude
Exits shadow 20:03:39 - 175° (S) 2,532 4.5 -23.8°
Reaches altitude 10° 20:03:58 10° 176° (S) 2,414 4.4 -23.8°
Maximum altitude 20:09:18 67° 259° (WSW) 902 2.4 -24.8°
Drops below altitude 10° 20:14:45 10° 342° (NNW) 2,460 5.0 -25.8°
Sets 20:17:09 0° 345° (NNW) 3,398 5.7 -26.2°
